Regional Weather Roundup
Issued by NWS

Home | Current Version | Previous Version | Text Only | Print | Product List | Glossary Off
Versions: 1 2 3 4 5 6 7 8 9 10 11 12 13 14 15 16 17 18 19 20 21 22 23 24 25 26 27 28 29 30 31 32 33 34 35 36 37 38 39 40 41 42 43 44 45 46 47 48 49 50

000
ASUS43 KTOP 261959
RWRKS

WEATHER ROUNDUP FOR KANSAS
NATIONAL WEATHER SERVICE GOODLAND KS
200 PM CST WED NOV 26 2014

NOTE:  "FAIR" INDICATES FEW OR NO CLOUDS BELOW 12,000 FEET WITH NO
SIGNIFICANT WEATHER AND/OR OBSTRUCTIONS TO VISIBILITY.

KSZ001>006-013>018-027>032-041>047-262100-
NORTHWEST KANSAS

CITY           SKY/WX    TMP DP  RH WIND       PRES   REMARKS
GOODLAND       PTSUNNY   35  25  66 NW12      30.26F WCI  27
HAYS           CLOUDY    39  18  41 NW22G28   30.27R WCI  29
HILL CITY      CLOUDY    39  19  44 N18       30.27S WCI  30
RUSSELL        CLOUDY    40  22  48 N22G32    30.24R WCI  30
$$

KSZ061>065-074>080-084>089-262100-
SOUTHWEST KANSAS

CITY           SKY/WX    TMP DP  RH WIND       PRES   REMARKS
DODGE CITY     MOSUNNY   46  15  28 N22G31    30.26R
ELKHART          N/A     46  22  38 N7          N/A
GARDEN CITY    SUNNY     44  21  40 N16G25    30.26R
GREAT BEND     CLOUDY    41  19  42 NW21G29   30.26R
LIBERAL        SUNNY     46  23  39 N18G24    30.28R
$$

KSZ066>073-081>083-090>101-262100-
SOUTHEAST KANSAS

CITY           SKY/WX    TMP DP  RH WIND       PRES   REMARKS
CHANUTE        PTSUNNY   47  24  40 NW22G33   30.11R
COFFEYVILLE    PTSUNNY   51  25  36 NW25G33   30.12R
HUTCHINSON     PTSUNNY   45  22  40 NW25G31   30.21R
MEDICINE LODGE   N/A     49  19  30 N23G31    30.22R
NEWTON         MOSUNNY   43  21  42 NW25G36   30.18R
PARSONS        PTSUNNY   49  25  39 NW17G30   30.13R
WICHITA INTL   PTSUNNY   46  22  38 NW25G31   30.19R
WICHITA JABRA  PTSUNNY   45  23  42 NW20G31   30.17R
WINFIELD       PTSUNNY   48  25  40 NW21G32   30.19R
$$

KSZ007>012-019>026-033>040-048>060-102>105-262100-
NORTHEAST KANSAS

CITY           SKY/WX    TMP DP  RH WIND       PRES   REMARKS
CONCORDIA      CLOUDY    36  22  56 N23G36    30.20S WCI  24
EMPORIA        CLOUDY    39  25  57 NW23G33   30.15R WCI  28
LAWRENCE       CLOUDY    38  28  67 NW24G31   30.10R WCI  27
MANHATTAN      CLOUDY    36  24  62 NW8G26    30.19R
OLATHE IND     CLOUDY    40  28  62 NW25G36   30.06R WCI  29
OLATHE EXE     CLOUDY    40  28  62 NW18G31   30.04R WCI  31
SALINA         PTSUNNY   41  23  48 NW25G33   30.22R
TOPEKA BILLARD CLOUDY    38  27  64 NW21G31   30.13R WCI  28
TOPEKA FORBES  CLOUDY    39  27  62 NW22G32   30.11R WCI  29
$$


USA.gov is the U.S. government's official web portal to all federal, state and local government web resources and services.